Location: Poinsettia Mobile Home Park
(26.6543°N, 81.8157°W)
Time: 05:08:04
(UTC+00:00)

Daily predictions for brighter satellites

Satellite Brightness Start Highest point End
(mag) Time Altitude Azimuth Time Altitude Azimuth Time Altitude Azimuth
Aureole 3 3.1 00:02:30 10° NNE 00:05:24 37° E 00:08:10 10° SSE
ERS-2 3.6 00:04:17 10° N 00:07:39 38° WNW 00:11:01 10° SW
BREEZE-M DEB (TANK) 3.6 00:06:17 10° NNW 00:07:22 19° N 00:07:22 19° N
Cosmos 44 3.4 00:04:55 10° SSW 00:09:26 69° WNW 00:14:12 10° NNE
GOES 2 Rocket 4.3 00:04:27 10° W 00:10:49 80° N 00:16:18 23° E
Cosmos 1626 Rocket 3.8 00:10:48 10° SSW 00:15:06 69° W 00:19:29 10° N
Cosmos 1328 3.7 00:11:09 10° S 00:15:07 62° E 00:18:15 16° NNE
CZ-4 R/B 1.3 00:11:20 10° SSE 00:15:29 77° ENE 00:19:34 10° N
ARGOS 3.5 00:12:30 10° SE 00:17:26 39° ENE 00:22:23 10° N
NOSS 2-1 (E) 4.0 00:16:01 10° SW 00:19:32 44° WNW 00:21:38 19° N
Lacrosse 5 3.7 00:20:21 10° N 00:22:02 15° NNE 00:22:02 15° NNE
CSL-04 Debris 4.2 00:23:07 10° SSE 00:28:20 52° ENE 00:33:32 10° N
Hubble Space Telescope 0.8 00:25:13 10° W 00:29:20 67° N 00:30:03 54° NE
Cosmos 1758 Rocket 3.4 00:32:44 10° S 00:37:06 73° E 00:38:18 47° NNE
CZ-2C R/B 2.6 00:31:58 10° NNE 00:37:34 83° ESE 00:43:11 10° S
Okean-O 3.0 00:33:17 10° S 00:37:39 65° WSW 00:42:04 10° NNW
Cosmos 2026 Rocket 4.2 00:41:32 10° SSW 00:47:33 69° W 00:53:40 10° N
Meteor 2-19 Rocket 4.4 00:44:55 10° S 00:51:03 89° WSW 00:57:05 11° N
Sakura Rocket 4.1 00:47:35 10° SW 00:53:31 42° SSE 00:53:46 41° SSE
H-2A R/B 2.6 00:48:45 10° S 00:53:32 53° W 00:58:24 10° NNW
Meteor 1-11 4.3 00:51:12 10° SSW 00:56:57 76° W 01:00:48 22° N
YAOGAN 1 4.1 00:54:04 10° SSW 00:58:00 35° W 01:01:59 10° NNW
GPS 2-12 Rocket1 4.1 00:54:50 10° WSW 00:58:33 34° S 00:58:33 34° S
Helios 1A Rocket 4.0 00:55:20 10° S 00:59:15 44° W 01:03:12 10° NNW
Cosmos 923 Rocket 4.0 00:59:12 10° NNW 01:04:31 79° WSW 01:06:37 38° S
Cosmos 2278 Rocket 2.2 01:02:00 10° SSW 01:07:39 80° WNW 01:08:10 72° NNW
Cosmos 158 Rocket 4.4 01:02:23 10° NNW 01:07:43 65° WSW 01:13:01 10° S
Centaur AC-146 3.5 01:07:37 10° WSW 01:09:50 34° S 01:09:50 34° S
USA 267 4.5 01:13:39 23° N 01:16:43 34° NW 01:22:28 10° WSW
CSL-04 Rocket 4.4 01:14:06 10° S 01:19:14 50° W 01:24:29 10° NNW
ATLAS 2A CENTAUR R/B 4.4 02:14:54 10° WSW 02:34:18 49° SW 02:34:18 49° SW
CZ-3A R/B 3.9 09:21:30 74° SW 09:22:33 77° S 09:32:43 10° ESE
ATLAS 2A CENTAUR R/B 4.1 09:31:04 33° E 09:31:04 33° E 09:36:31 10° E
USA 267 3.4 09:35:27 10° SE 09:40:55 66° SE 09:40:55 66° SE
SJ 16-02 3.1 09:54:02 28° ENE 09:54:03 28° ENE 09:57:49 10° SE
Atlas Centaur 2 2.7 09:56:30 78° WSW 09:57:09 89° SSE 10:05:40 10° ENE
ATLAS 3B CENTAUR R/B 3.7 09:56:49 49° SW 09:58:34 53° SSW 10:14:16 10° SE
Cosmos 1844 Rocket 2.9 09:59:55 67° SE 09:59:55 67° SE 10:04:47 10° SSE
NOSS 0 Rocket 4.3 09:54:19 10° S 10:00:25 61° ESE 10:06:29 10° NNE
Cosmos 2237 Rocket 3.0 10:05:01 10° S 10:10:26 51° ESE 10:15:54 10° NNE
Aurora 2 Rocket 3.4 10:14:55 47° S 10:15:21 48° SSE 10:21:18 10° E
SL-4 R/B 3.2 10:17:09 36° E 10:17:09 36° E 10:19:50 10° NE
H-2A R/B 3.2 10:13:08 10° S 10:15:42 35° S 10:15:42 35° S
Cosmos 1464 Rocket 4.3 10:13:00 10° S 10:19:02 65° E 10:25:05 10° NNE
OAO 3 Rocket 3.2 10:20:04 69° SSE 10:20:04 69° SSE 10:24:16 10° ESE
GPS 2-17 Rocket1 4.2 10:21:53 32° S 10:22:04 33° S 10:26:08 10° ESE
Cosmos 1072 Rocket 4.5 10:17:45 10° S 10:23:53 81° E 10:30:08 10° N
Cosmos 1455 Rocket 2.9 10:25:14 10° S 10:29:36 87° E 10:33:58 10° N
Delta 142 3.2 10:33:17 82° NW 10:33:25 83° N 10:38:02 10° E
Cosmos 44 3.8 10:34:04 45° WSW 10:34:04 45° WSW 10:38:50 10° S
IRIDIUM 104 4.2 10:28:42 10° S 10:33:52 66° W 10:39:03 10° N
ATLAS CENTAUR R/B 3.2 10:33:54 10° S 10:37:13 28° ESE 10:40:26 10° NE
ERS-2 4.2 10:34:15 10° SE 10:37:21 27° ENE 10:40:29 10° NNE
USA 276 3.9 10:37:31 25° NE 10:37:39 25° NE 10:40:18 10° E
Delta 2 Rocket 4.4 10:37:32 43° WSW 10:38:42 50° SSW 10:44:10 10° SE
Cosmos 1953 2.7 10:36:02 10° S 10:39:58 61° E 10:43:53 10° NNE
IRIDIUM 114 4.4 10:37:57 10° SSW 10:42:59 52° W 10:48:04 10° N
Cosmos 1980 3.6 10:37:38 10° SSW 10:43:15 70° WNW 10:48:54 10° NNE
Meteor PRIRODA 3.4 10:43:49 10° N 10:47:26 86° WNW 10:51:03 10° SSW
Meteor 2-5 Rocket 4.3 10:48:07 35° W 10:48:10 35° W 10:53:18 10° SSW
CZ-4B R/B 1.3 10:45:48 10° SSE 10:49:07 87° E 10:50:22 37° N
MOS 1 Rocket 4.2 10:46:11 10° SSE 10:51:13 53° ENE 10:55:59 10° N
Cosmos 540 Rocket 3.3 10:46:20 10° SSW 10:51:21 62° WNW 10:56:25 10° N
USA 307 3.0 10:49:32 12° SSW 10:53:23 75° SE 10:57:36 10° NE
deb Chang Zheng 4 3.6 10:50:29 10° N 10:54:34 50° WNW 10:58:38 10° SSW
Cosmos 2034 Rocket 4.0 10:50:07 10° S 10:56:30 85° W 11:02:53 10° N
Haruka 4.1 10:54:44 29° WNW 10:57:28 67° NNE 11:15:01 10° E
BREEZE-M DEB (TANK) 3.9 10:58:46 17° N 10:58:46 17° N 11:01:10 10° NNE
CZ-2C R/B 2.0 10:59:52 32° NW 11:00:48 37° NNW 11:04:32 10° NE
USA 308 2.8 10:57:55 10° SW 11:02:06 87° WNW 11:06:20 10° NE
USA 305 2.7 10:58:43 12° SW 11:02:35 80° NW 11:06:50 10° NE
Cosmos 990 Rocket 3.9 11:00:24 10° NNW 11:05:33 83° WSW 11:10:40 10° SSE
OAO 2 Rocket 4.4 11:04:20 22° NW 11:06:29 30° N 11:10:49 10° ENE
SEDSat Delta rocket 4.2 11:05:25 11° WSW 11:11:54 74° SSE 11:18:28 10° ENE
NOSS 3-2 (A) 3.2 11:06:51 10° SSW 11:12:13 86° ESE 11:18:06 10° NNE
Meteor 1-16 Rocket 4.2 11:07:12 10° SSW 11:12:59 73° W 11:18:55 10° N
Nadezhda 4 Rocket 4.1 11:08:12 10° N 11:14:19 79° E 11:20:25 10° S
USA 306 2.9 11:10:15 10° SW 11:14:26 60° NW 11:18:37 10° NNE
Cosmos 1892 Rocket 4.0 11:12:42 10° NNW 11:16:44 38° W 11:20:49 10° SSW
IUS-12 SRM-1 3.4 11:16:08 13° WSW 11:18:58 47° SSE 11:22:25 10° E
SWAS 4.4 11:14:58 10° SSW 11:19:08 59° WNW 11:23:21 10° NNE
NOSS 3-2 (C) 4.0 11:16:45 10° S 11:21:56 53° ESE 11:27:34 10° NE
SAR-Lupe-4 3.5 11:18:48 10° SSE 11:22:22 87° WSW 11:25:58 10° NNW
COSMO-SKYMED 1 3.0 11:18:39 10° S 11:22:43 40° W 11:26:49 10° NNW
Cosmos 1340 4.0 11:20:27 10° N 11:24:01 41° E 11:27:35 10° SSE
CZ-3A R/B 3.9 11:14:15 15° W 11:24:24 49° SSW 11:31:31 10° SE
Cosmos 841 Rocket 4.2 11:21:11 10° SW 11:25:34 28° WNW 11:29:59 10° N
Meteor 2-13 Rocket 4.4 11:21:31 10° N 11:27:40 78° W 11:33:46 10° S
Cosmos 1703 3.8 11:25:22 10° N 11:29:14 62° E 11:33:05 10° SSE
CZ-4B R/B 4.1 11:28:53 10° NNW 11:31:20 17° WNW 11:33:51 10° WSW
SJ 16-02 3.0 11:31:06 14° WNW 11:32:19 15° W 11:34:50 10° SW
SAR-Lupe-1 4.1 11:29:36 10° S 11:33:07 60° W 11:36:39 10° NNW
Lacrosse 4 Rocket 1.7 11:32:06 10° SW 11:36:02 43° WNW 11:40:05 10° N
Cosmos 1898 Rocket 3.8 11:31:27 10° NNW 11:36:22 45° WSW 11:41:16 10° S
Chandra Rocket (1) 1.4 11:35:58 11° W 11:39:45 63° N 11:42:12 10° E
Lacrosse 5 rocket 4.0 11:39:17 10° NNE 11:40:01 10° NE 11:40:46 10° NE
H-2A R/B 4.0 11:38:04 10° NNW 11:40:43 19° WNW 11:43:23 10° WSW
SL-16 R/B 2.2 11:36:18 10° SSW 11:41:55 71° WNW 11:47:33 10° NNE
Atlas Centaur 2 3.2 11:39:20 10° W 11:47:25 69° N 11:55:57 10° E
Cosmos 1400 Rocket 3.7 11:44:28 10° SW 11:47:58 28° W 11:51:32 10° NNW
CENTAUR R/B 2.2 11:44:29 10° SSW 11:49:53 78° WNW 11:56:10 10° NNE
GPS 2-04 Rocket1 2.8 11:45:56 10° WNW 11:50:06 85° SSW 11:54:15 10° ESE
Cosmos 2026 Rocket 4.5 11:45:04 10° N 11:51:25 71° E 11:57:46 10° SSE
CZ-2C R/B 3.2 11:47:38 10° SSE 11:52:43 61° ENE 11:57:53 10° N
Cosmos 2278 Rocket 2.3 11:48:07 10° NNW 11:53:43 62° WSW 11:59:16 10° S
Cosmos 1606 Rocket 3.8 11:49:30 10° S 11:53:47 77° E 11:58:05 10° N
CZ-4B R/B 3.3 11:48:44 10° NNE 11:54:24 89° ESE 11:59:56 10° SSW
Cosmos 2237 Rocket 3.6 11:51:21 10° W 11:54:42 16° WNW 11:58:04 10° NNW
